User: anonymous   Login
Location: Unspecified
(0.0000°N, 0.0000°E)
Time: 07:53:45
(UTC+00:00)
Language:

COSMOS 2497 - Orbit

View from above orbital plane
View from above orbital plane
View from above satellite
View from above satellite

Ground track
Ground track

The orbit data is extracted from the following two-line orbital elements,

1 39762U 14028B   17328.40108116 -.00000002 +00000-0 -84210-4 0  9997
2 39762 082.4493 267.7554 0021960 043.8439 316.4386 12.42870865159159
Epoch (UTC): 24 November 2017 09:37:33
Eccentricity: 0.0021960
inclination: 82.4493°
perigee height: 1477 km
apogee height: 1512 km
right ascension of ascending node: 267.7554°
argument of perigee: 43.8439°
revolutions per day: 12.42870865
mean anomaly at epoch: 316.4386°
orbit number at epoch: 15915

The dashed part of the orbit path shows where the satellite is in the earth's shadow,  

DLR